Time,TemperatureF,DewpointF,PressureIn,WindDirection,WindDirectionDegrees,WindSpeedMPH,WindSpeedGustMPH,Humidity,HourlyPrecipIn,Conditions,Clouds,dailyrainin,SoftwareType,DateUTC
2013-03-05 07:03:00,47.1,43.0,30.12,SE,128,0.0,1.0,85,0.00,,,0.00,weatherlink.com 1.10,2013-03-05 12:03:00,
2013-03-05 07:18:00,47.4,43.0,30.13,ESE,122,0.0,1.0,84,0.00,,,0.00,weatherlink.com 1.10,2013-03-05 12:18:00,
2013-03-05 07:33:00,48.9,44.0,30.12,ESE,122,0.0,1.0,83,0.00,,,0.00,weatherlink.com 1.10,2013-03-05 12:33:00,
2013-03-05 07:48:00,51.4,45.0,30.12,SE,134,2.0,2.0,79,0.00,,,0.00,weatherlink.com 1.10,2013-03-05 12:48:00,
2013-03-05 08:03:00,53.0,43.0,30.12,SSE,167,0.0,4.0,69,0.00,,,0.00,weatherlink.com 1.10,2013-03-05 13:03:00,
2013-03-05 08:19:00,54.9,44.0,30.12,SSE,155,1.0,2.0,66,0.00,,,0.00,weatherlink.com 1.10,2013-03-05 13:19:00,
2013-03-05 08:34:00,55.9,44.0,30.12,SSE,167,2.0,4.0,64,0.00,,,0.00,weatherlink.com 1.10,2013-03-05 13:34:00,
2013-03-05 08:49:00,56.1,43.0,30.11,SSE,150,3.0,5.0,62,0.00,,,0.00,weatherlink.com 1.10,2013-03-05 13:49:00,
2013-03-05 09:04:00,58.0,45.0,30.11,SE,141,1.0,6.0,62,0.00,,,0.00,weatherlink.com 1.10,2013-03-05 14:04:00,
2013-03-05 09:19:00,58.5,45.0,30.10,SE,138,5.0,6.0,62,0.00,,,0.00,weatherlink.com 1.10,2013-03-05 14:19:00,
2013-03-05 09:34:00,59.2,45.0,30.10,South,174,1.0,6.0,60,0.00,,,0.00,weatherlink.com 1.10,2013-03-05 14:34:00,
2013-03-05 09:49:00,60.1,45.0,30.09,SSE,158,4.0,6.0,57,0.00,,,0.00,weatherlink.com 1.10,2013-03-05 14:49:00,
2013-03-05 10:04:00,61.5,44.0,30.09,South,184,3.0,8.0,54,0.00,,,0.00,weatherlink.com 1.10,2013-03-05 15:04:00,
2013-03-05 10:19:00,61.9,43.0,30.09,SE,138,0.0,5.0,51,0.00,,,0.00,weatherlink.com 1.10,2013-03-05 15:19:00,
2013-03-05 10:34:00,61.4,41.0,30.08,WNW,288,3.0,9.0,47,0.00,,,0.00,weatherlink.com 1.10,2013-03-05 15:34:00,
2013-03-05 10:49:00,61.5,43.0,30.08,WSW,248,1.0,6.0,50,0.00,,,0.00,weatherlink.com 1.10,2013-03-05 15:49:00,
2013-03-05 11:34:00,61.3,45.0,30.07,SW,215,2.0,7.0,55,0.00,,,0.00,weatherlink.com 1.10,2013-03-05 16:34:00,
2013-03-05 11:49:00,62.6,45.0,30.06,NW,305,2.0,6.0,52,0.00,,,0.00,weatherlink.com 1.10,2013-03-05 16:49:00,
2013-03-05 12:04:00,63.5,45.0,30.04,WSW,249,1.0,4.0,51,0.00,,,0.00,weatherlink.com 1.10,2013-03-05 17:04:00,
2013-03-05 12:19:00,64.3,47.0,30.04,SW,228,2.0,6.0,53,0.00,,,0.00,weatherlink.com 1.10,2013-03-05 17:19:00,
2013-03-05 12:34:00,63.3,46.0,30.03,SW,235,3.0,4.0,53,0.00,,,0.00,weatherlink.com 1.10,2013-03-05 17:34:00,
2013-03-05 12:49:00,62.2,46.0,30.02,South,177,4.0,4.0,56,0.00,,,0.00,weatherlink.com 1.10,2013-03-05 17:49:00,
2013-03-05 13:04:00,61.6,46.0,30.00,SSW,207,2.0,6.0,57,0.00,,,0.00,weatherlink.com 1.10,2013-03-05 18:04:00,
2013-03-05 13:19:00,61.0,47.0,29.99,South,176,2.0,5.0,60,0.00,,,0.00,weatherlink.com 1.10,2013-03-05 18:19:00,
2013-03-05 13:34:00,60.6,47.0,29.98,SW,218,3.0,5.0,61,0.00,,,0.00,weatherlink.com 1.10,2013-03-05 18:34:00,
2013-03-05 13:49:00,60.4,47.0,29.98,SW,221,1.0,4.0,61,0.00,,,0.00,weatherlink.com 1.10,2013-03-05 18:49:00,
2013-03-05 14:05:00,60.4,48.0,29.97,SSW,200,0.0,3.0,63,0.00,,,0.00,weatherlink.com 1.10,2013-03-05 19:05:00,
2013-03-05 14:20:00,61.2,47.0,29.97,SSW,194,2.0,3.0,61,0.00,,,0.00,weatherlink.com 1.10,2013-03-05 19:20:00,
2013-03-05 14:35:00,61.0,48.0,29.96,WSW,239,2.0,3.0,62,0.00,,,0.00,weatherlink.com 1.10,2013-03-05 19:35:00,
2013-03-05 14:50:00,61.4,48.0,29.95,SW,235,1.0,2.0,62,0.00,,,0.00,weatherlink.com 1.10,2013-03-05 19:50:00,
2013-03-05 15:05:00,61.3,48.0,29.95,WSW,253,1.0,4.0,63,0.00,,,0.00,weatherlink.com 1.10,2013-03-05 20:05:00,
2013-03-05 15:20:00,60.8,49.0,29.94,SSE,158,2.0,3.0,66,0.00,,,0.00,weatherlink.com 1.10,2013-03-05 20:20:00,
2013-03-05 15:35:00,60.9,48.0,29.93,SW,215,1.0,3.0,63,0.00,,,0.00,weatherlink.com 1.10,2013-03-05 20:35:00,
2013-03-05 15:51:00,60.9,49.0,29.93,SSE,163,1.0,4.0,65,0.00,,,0.00,weatherlink.com 1.10,2013-03-05 20:51:00,
2013-03-05 16:05:00,60.5,49.0,29.93,SSW,195,0.0,2.0,67,0.00,,,0.00,weatherlink.com 1.10,2013-03-05 21:05:00,
2013-03-05 16:20:00,61.0,49.0,29.91,SW,235,1.0,3.0,65,0.00,,,0.00,weatherlink.com 1.10,2013-03-05 21:20:00,
2013-03-05 16:35:00,61.3,49.0,29.90,SSW,202,1.0,3.0,64,0.00,,,0.00,weatherlink.com 1.10,2013-03-05 21:35:00,
2013-03-05 16:50:00,63.2,49.0,29.89,SE,145,1.0,7.0,61,0.00,,,0.00,weatherlink.com 1.10,2013-03-05 21:50:00,
2013-03-05 17:05:00,63.3,49.0,29.88,SSW,204,2.0,6.0,61,0.00,,,0.00,weatherlink.com 1.10,2013-03-05 22:05:00,
2013-03-05 17:20:00,63.0,50.0,29.87,South,176,2.0,5.0,62,0.00,,,0.00,weatherlink.com 1.10,2013-03-05 22:20:00,
2013-03-05 17:35:00,62.4,49.0,29.86,SSW,198,4.0,7.0,63,0.00,,,0.00,weatherlink.com 1.10,2013-03-05 22:35:00,
2013-03-05 17:50:00,61.4,50.0,29.86,SSE,160,3.0,7.0,66,0.00,,,0.00,weatherlink.com 1.10,2013-03-05 22:50:00,
2013-03-05 18:05:00,60.2,50.0,29.86,SSW,205,2.0,6.0,69,0.00,,,0.00,weatherlink.com 1.10,2013-03-05 23:05:00,
2013-03-05 18:21:00,60.4,50.0,29.85,SW,221,1.0,5.0,68,0.00,,,0.00,weatherlink.com 1.10,2013-03-05 23:21:00,
2013-03-05 18:36:00,60.7,50.0,29.85,SSE,159,1.0,4.0,69,0.00,,,0.00,weatherlink.com 1.10,2013-03-05 23:36:00,
2013-03-05 18:51:00,61.0,51.0,29.84,WSW,238,2.0,5.0,69,0.00,,,0.00,weatherlink.com 1.10,2013-03-05 23:51:00,
2013-03-05 19:06:00,60.9,51.0,29.83,SW,224,0.0,4.0,70,0.00,,,0.00,weatherlink.com 1.10,2013-03-06 00:06:00,
2013-03-05 19:21:00,60.4,52.0,29.82,SE,146,2.0,5.0,73,0.00,,,0.00,weatherlink.com 1.10,2013-03-06 00:21:00,